Lid_Strength_Index
7 7 7 6 6 6 6 7 8 7 6 6 7 7 6 5 5 5 5 5 4 4 2 1 1 1 1 0 0 0 0 -1 -0 0 1 1 1 -0 -0 -1 -2 -2 -1 -2
7 7 5 5 7 7 6 7 8 7 7 6 7 7 5 5 6 5 5 5 4 4 3 2 2 1 1 1 0 0 0 -0 -0 -0 -0 -0 -0 -0 -0 -1 -1 -2 -2 -2
6 6 5 7 6 7 6 7 7 8 8 6 6 7 7 6 5 5 4 4 4 4 3 3 2 2 1 1 1 1 0 -0 -0 -1 -0 -0 -0 -0 0 0 0 -1 -1 -1
6 5 6 6 6 6 8 5 7 8 8 9 7 11 7 7 7 6 5 5 4 4 3 3 2 2 2 1 0 0 0 0 -0 -1 -0 0 1 2 1 0 -0 -0 -1 -1
7 6 6 7 6 5 7 5 7 7 8 8 8 9 7 5 6 6 5 5 4 3 3 3 2 2 1 1 1 0 0 0 -0 -0 -0 0 1 0 0 0 -1 -0 -1 -1
5 4 5 5 5 5 5 6 6 7 7 10 8 8 8 7 6 5 5 5 4 3 3 2 2 1 1 1 1 1 0 1 -0 0 0 0 0 1 1 1 1 0 0 -0
6 6 5 4 6 5 6 7 10 10 10 11 8 9 8 6 5 5 5 4 4 3 3 3 3 2 2 1 1 1 1 1 0 0 0 0 0 0 0 0 1 0 0 0
8 9 6 5 6 7 7 7 10 12 12 10 8 10 7 5 4 4 4 4 4 4 3 3 2 2 2 1 1 1 1 1 1 0 0 0 -0 0 0 0 0 0 0 0
7 8 5 5 5 5 7 8 6 9 8 10 9 8 5 5 5 5 5 5 5 4 3 3 2 2 2 2 1 1 1 1 1 1 0 0 0 0 0 -0 -0 -0 -1 -0
6 9 6 5 5 5 6 5 9 8 11 12 10 9 8 7 7 6 6 6 5 4 3 3 2 2 2 1 1 1 1 1 1 0 0 0 0 -0 -0 -0 -0 -0 -1 -1
5 7 7 6 7 7 7 7 7 7 8 11 12 9 6 7 7 7 6 5 5 4 4 3 2 2 1 1 1 1 1 1 1 1 0 0 0 0 -0 0 -0 -0 -0 -0
5 6 8 8 6 5 6 7 7 9 10 9 9 9 6 6 6 6 6 5 5 4 4 3 2 2 2 2 1 1 1 1 1 0 0 0 0 -0 0 0 -0 -0 -0 -1
5 7 9 8 7 6 7 6 6 7 7 9 10 9 5 5 6 6 6 5 4 4 3 3 2 2 2 2 1 1 1 1 1 1 1 1 1 1 1 0 -0 -0 -0 -0
4 6 8 10 9 7 8 7 6 7 9 9 9 8 6 6 6 6 5 5 4 4 4 3 3 3 2 2 2 1 1 1 1 0 0 1 1 0 0 0 -0 0 0 0
5 8 7 7 7 7 7 7 7 7 7 9 8 8 6 5 6 6 5 5 5 5 4 4 3 3 2 2 2 2 1 1 0 1 1 1 0 -0 -0 0 0 -0 0 0
6 8 7 8 7 7 8 7 7 7 7 7 7 7 4 4 5 6 5 5 5 4 4 4 3 3 3 2 2 3 2 2 1 1 1 0 0 0 1 0 0 0 0 0
7 7 8 10 8 8 10 8 7 7 7 7 8 6 4 5 6 6 5 5 5 4 4 3 3 2 2 2 2 2 2 2 1 1 1 1 1 1 1 1 1 1 1 0
7 7 8 9 9 13 8 6 7 7 7 6 6 5 5 5 5 5 4 4 4 4 3 3 2 2 2 1 1 1 1 1 1 1 1 1 1 1 1 1 1 1 1 1
6 7 9 10 10 9 8 7 7 7 7 5 5 5 5 5 5 5 4 3 3 3 3 2 2 2 1 1 1 1 1 1 1 1 1 1 1 1 1 1 1 1 1 1
7 6 8 9 11 11 8 6 5 5 9 5 5 5 6 5 7 6 3 3 3 2 2 2 2 2 1 1 1 1 1 1 1 1 1 1 0 0 1 1 1 1 1 1
8 8 9 9 10 8 6 5 5 10 9 5 5 5 5 6 5 4 3 3 2 2 2 2 2 2 1 1 0 1 1 1 1 0 0 0 0 0 0 0 1 1 1 1
9 9 9 8 10 11 5 5 8 6 4 4 4 4 5 4 3 3 3 3 3 3 2 2 2 2 1 1 1 1 1 0 0 0 0 0 0 1 0 0 0 1 1 2
9 7 9 8 8 5 4 4 3 3 4 4 3 3 3 4 5 4 4 3 2 2 2 2 2 2 1 1 1 1 1 0 0 1 1 0 0 0 0 1 1 2 2 2
6 5 7 7 5 5 4 3 3 3 3 3 3 3 3 3 3 3 4 3 3 2 2 1 1 2 2 1 1 0 -0 -0 0 1 1 0 1 1 1 1 1 2 2 3
6 6 6 7 5 5 4 4 3 3 3 3 3 2 3 3 3 3 2 2 2 2 1 1 1 1 1 1 1 1 -0 0 1 0 0 1 1 1 1 1 1 2 1 2
5 6 8 8 5 5 5 3 3 4 3 3 3 3 2 2 3 2 2 2 2 2 1 1 1 1 1 1 1 -0 -0 0 1 1 1 1 1 1 1 1 2 7 7 9